Back to catalog

STARLINK-31862

AliveCommunicationsVLEO
NORAD 59786·PAYLOAD·🇺🇸 United States

Launched May 18, 2024 from Cape Canaveral Space Force Station

Loading…

Next Passes (next 24 hours)

TLE

FreshSource: CelesTrak SupGP

Epoch: Sep 15, 2026, 02:35 UTC

1 59786C 24093E   26258.10812500 -.00037414  00000+0 -13552-2 0  2589
2 59786  43.0025 218.8322 0001298 268.7106 261.3477 15.27595007    19

Track STARLINK-31862 in real time with AllMySat

Download on the App Store